Flag for Australia Weather past 2 weeks in Melbourne, Victoria, Australia

Now
46 °F

Fog.


Feels Like: 43 °F
Forecast: 40 / 65 °F
Wind: 7 mph from North

Location: Melbourne Airport

Current Time: Aug 29, 2014 at 9:50:32 AM

Latest Report: Aug 29, 2014 at 9:00 AM


Visibility: 2 mi

Pressure: 30.42 "Hg

Humidity: 100%

Dew point: 46 °F

Location of MelbourneLocation

Historic Weather in Melbourne — Graph

°F

Melbourne temperature yesterday

Maximum temperature yesterday: 68 °F (at 2:00 PM)
Minimum temperature yesterday: 37 °F (at 4:00 AM)
Average temperature yesterday: 52 °F

Past Weeks' High & Low Weather Summary

 TemperatureHumidityPressure
High68 °F (Aug 28, 2:00 PM)100% (Aug 14, 10:30 PM)30.60 "Hg (Aug 14, 10:30 PM)
Low37 °F (Aug 15, 1:30 AM)34% (Aug 22, 3:00 PM)29.98 "Hg (Aug 17, 2:00 PM)
Average51 °F77%30.29 "Hg
* Reported Aug 14 8:00 AM — Aug 29 8:30 AM, Melbourne, Weather by CustomWeather, © 2014

Note: Actual official high and low records may vary slightly from our data, if they occured in-between our weather recording intervals... More about our weather records

Advertising

Melbourne weather history for previous 24 hours

 ConditionsComfort  
Time TempWeatherWind HumidityBarometerVisibility
8:30 AM
Aug 29
46 °FFog.6 mph100%30.42 "Hg1 mi
8:00 AM45 °FFog.5 mph100%30.39 "Hg0 mi
7:30 AM45 °FFog.1 mph100%30.39 "Hg0 mi
7:00 AM43 °FFog.No wind100%30.39 "Hg0 mi
6:30 AM43 °FFog.No wind93%30.36 "Hg0 mi
6:00 AM39 °FPartly sunny.No wind100%30.36 "Hg2 mi
5:30 AM39 °FFog.3 mph100%30.36 "Hg2 mi
5:00 AM39 °FFog.3 mph100%30.36 "Hg2 mi
4:30 AM39 °FFog.6 mph100%30.36 "Hg2 mi
4:00 AM41 °FFog.3 mph100%30.36 "Hg3 mi
3:30 AM43 °FFog.6 mph93%30.36 "Hg3 mi
3:00 AM43 °FFog.6 mph93%30.36 "Hg3 mi
2:30 AM41 °FFog.2 mph100%30.36 "Hg3 mi
2:00 AM41 °FFog.2 mph100%30.36 "Hg3 mi
1:00 AM45 °FPassing clouds.5 mph87%30.36 "Hg4 mi
12:30 AM45 °FPassing clouds.7 mph93%30.36 "Hg4 mi
12:00 AM46 °FFog.5 mph87%30.36 "Hg4 mi
11:30 PM
Aug 28
45 °FFog.5 mph93%30.36 "Hg5 mi
11:00 PM46 °FFog.5 mph87%30.36 "Hg5 mi
10:30 PM46 °FPassing clouds.5 mph87%30.36 "Hg6 mi
10:00 PM48 °FPassing clouds.1 mph82%30.36 "HgN/A
9:30 PM48 °FPassing clouds.3 mph82%30.36 "HgN/A
9:00 PM50 °FPassing clouds.5 mph76%30.36 "HgN/A
8:30 PM54 °FPassing clouds.5 mph67%30.36 "HgN/A
8:00 PM52 °FPassing clouds.7 mph72%30.36 "HgN/A
7:00 PM55 °FClear.No wind63%30.33 "Hg10 mi
6:00 PM57 °FClear.6 mph63%30.33 "Hg10 mi
5:30 PM59 °FClear.8 mph55%30.33 "Hg10 mi
5:00 PM61 °FClear.9 mph55%30.30 "Hg10 mi
4:30 PM64 °FSunny.10 mph46%30.30 "Hg10 mi
4:00 PM64 °FSunny.10 mph49%30.30 "Hg10 mi
3:30 PM66 °FSunny.12 mph46%30.30 "Hg10 mi
3:00 PM68 °FSunny.3 mph38%30.30 "Hg10 mi
2:30 PM68 °FSunny.3 mph38%30.30 "Hg10 mi
2:00 PM68 °FSunny.6 mph40%30.30 "Hg10 mi
1:30 PM66 °FSunny.3 mph43%30.30 "Hg10 mi
1:00 PM66 °FSunny.1 mph46%30.33 "Hg10 mi
12:30 PM66 °FSunny.5 mph46%30.33 "Hg10 mi
12:00 PM64 °FSunny.2 mph52%30.36 "Hg10 mi
11:30 AM63 °FPassing clouds.5 mph52%30.36 "HgN/A
11:00 AM61 °FSunny.1 mph55%30.36 "Hg10 mi
10:30 AM63 °FPartly sunny.3 mph52%30.39 "HgN/A
10:00 AM59 °FScattered clouds.2 mph63%30.39 "HgN/A
9:30 AM55 °FSunny.5 mph72%30.39 "Hg10 mi
9:00 AM50 °FSunny.6 mph82%30.39 "Hg10 mi
Weather by CustomWeather, © 2014

See weather overviewHow to use our weather pages